Location: Betz
(49.1556°N, 2.9558°E)
Time: 00:23:48
(UTC+00:00)

Cosmos 1544 - Pass Details

Date: 18 September 2019
Orbit: 475 x 491 km, 82.5° (Epoch: 19 October)

Event Time Altitude Azimuth Distance (km) Brightness Sun altitude
Rises 19:13:59 0° 195° (SSW) 2,515 6.7 -13.4°
Reaches altitude 10° 19:16:04 10° 198° (SSW) 1,642 5.7 -13.7°
Maximum altitude 19:19:38 66° 282° (WNW) 527 3.4 -14.3°
Drops below altitude 10° 19:23:15 10° 5° (N) 1,662 6.0 -14.8°
Sets 19:25:22 0° 8° (N) 2,549 6.9 -15.1°
